Home   Weather   Olathe   Past weeks

Flag for USA Past Weather in Olathe, Kansas, USA — Yesterday and Last 2 Weeks

Now
73 °F

Clear.


Feels Like: 68 °F
Forecast: 64 / 81 °F
Wind: 5 mph from South

Location: Johnson County Executive Airport

Current Time: Jun 23, 2017 at 3:47:43 am

Latest Report: Jun 23, 2017 at 2:53 am


Visibility: 10 mi

Pressure: 29.67 "Hg

Humidity: 100%

Dew Point: 73 °F

Location of OlatheLocation

Past Weather in Olathe — Graph

°F

Olathe Temperature Yesterday

Maximum temperature yesterday: 84 °F (at 5:53 pm)
Minimum temperature yesterday: 67 °F (at 3:53 am)
Average temperature yesterday: 77 °F

High & Low Weather Summary for the Past Weeks

 TemperatureHumidityPressure
High90 °F (Jun 15, 4:53 pm)100% (Jun 13, 5:53 am)30.05 "Hg (Jun 13, 5:53 am)
Low57 °F (Jun 9, 5:53 am)35% (Jun 18, 4:53 pm)29.59 "Hg (Jun 17, 4:53 pm)
Average76 °F73%29.83 "Hg
* Reported Jun 8 1:53 am — Jun 23 1:53 am, Olathe. Weather by CustomWeather, © 2017

Note: Actual official high and low records may vary slightly from our data, if they occured in-between our weather recording intervals... More about our weather records

Advertising

Olathe Weather History for the Previous 24 Hours

Scroll right to see more
 ConditionsComfort  
Time TempWeatherWind HumidityBarometerVisibility
1:53 am
Fri, Jun 23
73 °FClear.5 mph100%29.68 "Hg10 mi
12:53 am74 °FClear.3 mph100%29.69 "Hg10 mi
11:53 pm
Thu, Jun 22
76 °FClear.No wind94%29.68 "Hg10 mi
10:53 pm76 °FClear.3 mph94%29.67 "Hg10 mi
9:53 pm78 °FClear.3 mph87%29.67 "Hg10 mi
8:53 pm79 °FClear.5 mph84%29.65 "Hg10 mi
7:53 pm82 °FSunny.15 mph74%29.62 "Hg10 mi
6:53 pm83 °FPassing clouds.10 mph72%29.62 "Hg10 mi
5:53 pm84 °FPassing clouds.13 mph70%29.63 "Hg10 mi
4:53 pm83 °FPartly sunny.13 mph72%29.65 "Hg10 mi
3:53 pm82 °FOvercast.15 mph72%29.66 "Hg10 mi
3:12 pm82 °FOvercast.15 mph72%29.71 "Hg10 mi
2:53 pm81 °FPartly sunny.14 mph72%29.67 "Hg10 mi
2:44 pm82 °FPartly sunny.18 mph72%29.71 "Hg10 mi
1:53 pm82 °FPartly sunny.13 mph72%29.68 "Hg10 mi
12:53 pm82 °FOvercast.12 mph70%29.71 "Hg10 mi
12:31 pm81 °FPartly sunny.13 mph72%29.75 "Hg10 mi
11:53 am80 °FPartly sunny.13 mph71%29.72 "Hg10 mi
10:53 am80 °FPassing clouds.14 mph71%29.73 "Hg10 mi
9:53 am78 °FSunny.12 mph76%29.73 "Hg10 mi
8:53 am75 °FSunny.15 mph79%29.74 "Hg10 mi
7:53 am72 °FSunny.13 mph87%29.76 "Hg10 mi
6:53 am68 °FSunny.10 mph93%29.77 "Hg10 mi
5:53 am67 °FClear.No wind93%29.79 "Hg10 mi
4:53 am67 °FClear.5 mph90%29.79 "Hg10 mi
3:53 am67 °FClear.8 mph90%29.80 "Hg10 mi
Weather by CustomWeather, © 2017

See weather overviewHow to use our weather pages